Content
SEND FEEDBACK

Daily
Averages
Monthly
Summary
Greece

IOANNINA, GREECE


Home > Europe > Greece
Elevation: 1588 feet     Latitude: 39 40N     Longitude: 020 51E

WEATHER
 
SELECT A DAY
Number of Records: 283,299;   Date Range: 7/1/96 - 7/28/14
 
SHARE

PRINT THIS DATA

[ ← Previous Day ]
WEATHER ALMANAC - FEBRUARY 9, 2013
[ Next Day → ]
[ °C ]   °F
Weather ElementAverageHighLow
Temperature46.1 °F50 °F (12:20 pm)42.8 °F (7:50 am)
Dewpoint44.4 °F46.4 °F (12:20 pm)41 °F (9:20 am)
Humidity93.4 %100 % (3:20 am)82 % (12:50 pm)
Barometer29.76 in29.80 in (9:50 am)29.68 in (12:50 am)
Wind Speed6.6 mph20.7 mph (4:20 pm)
Wind Gust28.8 mph (6:50 pm)
Weather ElementAverage
Visibility5.7 mi
Wind DirectionESE (105.4 °)

Weather ElementTotal
Precipitation---
Heating Degree Days18.6 (Base 65)
Averaged from 51 records on February 9, 2013
WEATHER CONDITIONS BREAKOUT
WIND DIRECTION BREAKOUT
WEATHER BY HOUR - FEBRUARY 9, 2013
[ °C ]   °F
Local TimeTemperatureDewpointHumidityBarometerVisibilityWind DirectionWind SpeedGust SpeedPrecipitationEventsConditions
12:50 AM46.4 °F44.6 °F93 %29.68 in4.3 miESE (120°)8.1 mphRainLight Rain
1:20 AM46.4 °F44.6 °F93 %29.68 in5.0 miEast (100°)11.5 mphRainLight Rain
1:50 AM44.6 °F42.8 °F93 %29.68 in6.2 miEast (100°)13.8 mphMostly Cloudy
2:00 AM45.0 °F43.0 °F90 %29.68 in6.0 miEast (100°)13.8 mphRainLight Rain
2:20 AM44.6 °F42.8 °F93 %29.68 in5.0 miESE (110°)10.4 mphRainLight Rain
2:50 AM44.6 °F42.8 °F93 %29.71 in6.2 miESE (110°)5.8 mphRainLight Rain
3:20 AM44.6 °F44.6 °F100 %29.71 in6.2 miSE (130°)5.8 mphOvercast
3:50 AM44.6 °F44.6 °F100 %29.71 in6.2 miESE (120°)6.9 mphMostly Cloudy
4:20 AM44.6 °F42.8 °F93 %29.71 in6.2 miCalmMostly Cloudy
4:50 AM44.6 °F44.6 °F100 %29.71 in6.2 miWNW (300°)4.6 mphMostly Cloudy
5:20 AM44.6 °F44.6 °F100 %29.71 in5.0 miCalmRainLight Rain
5:50 AM44.6 °F44.6 °F100 %29.74 in3.7 miCalmRainLight Rain
6:20 AM44.6 °F44.6 °F100 %29.74 in5.6 miCalmRainLight Rain
6:50 AM44.6 °F42.8 °F93 %29.74 in6.2 miCalmMostly Cloudy
7:20 AM44.6 °F42.8 °F93 %29.74 in6.2 miCalmMostly Cloudy
7:50 AM42.8 °F42.8 °F100 %29.77 in6.2 miCalmMostly Cloudy
8:00 AM44.0 °F42.0 °F89 %29.78 in9.0 miCalmPartly Cloudy
8:20 AM44.6 °F42.8 °F93 %29.77 in6.2 miCalmScattered Clouds
8:50 AM42.8 °F42.8 °F100 %29.77 in6.2 miCalmMostly Cloudy
9:20 AM42.8 °F41.0 °F93 %29.77 in6.2 miCalmMostly Cloudy
9:50 AM44.6 °F42.8 °F93 %29.80 in6.2 miCalmMostly Cloudy
10:20 AM44.6 °F42.8 °F93 %29.80 in6.2 miCalmMostly Cloudy
10:50 AM44.6 °F41.0 °F87 %29.80 in6.2 miCalmMostly Cloudy
11:20 AM44.6 °F41.0 °F87 %29.80 in6.2 miCalmMostly Cloudy
11:50 AM48.2 °F44.6 °F87 %29.80 in6.2 miVariable3.5 mphMostly Cloudy
12:20 PM50.0 °F46.4 °F87 %29.80 in6.2 miSouth (170°)9.2 mphMostly Cloudy
12:50 PM50.0 °F44.6 °F82 %29.80 in6.2 miSSE (160°)8.1 mphMostly Cloudy
1:20 PM48.2 °F46.4 °F93 %29.80 in6.2 miSE (140°)10.4 mphThunderstormThunderstorm
1:50 PM48.2 °F46.4 °F93 %29.80 in6.2 miEast (100°)10.4 mphMostly Cloudy
2:00 PM49.0 °F46.0 °F86 %29.80 in6.0 miEast (100°)10.4 mphThunderstormLight Thunderstorm
2:20 PM48.2 °F46.4 °F93 %29.80 in6.2 miESE (120°)16.1 mphMostly Cloudy
2:50 PM48.2 °F46.4 °F93 %29.80 in6.2 miESE (120°)16.1 mphMostly Cloudy
3:20 PM48.2 °F46.4 °F93 %29.80 in6.2 miESE (120°)13.8 mph25.3 mphMostly Cloudy
3:50 PM50.0 °F46.4 °F87 %29.74 in6.2 miESE (120°)17.3 mphThunderstormThunderstorm
4:20 PM50.0 °F46.4 °F87 %29.74 in5.0 miSE (130°)20.7 mphRain-ThunderstormLight Thunderstorms and Rain
4:50 PM48.2 °F46.4 °F93 %29.74 in3.1 miSSE (160°)13.8 mphHail-ThunderstormHeavy Thunderstorms with Hail
5:20 PM48.2 °F46.4 °F93 %29.74 in4.3 miNE (40°)4.6 mphRain-ThunderstormLight Thunderstorms and Rain
5:50 PM46.4 °F46.4 °F100 %29.74 in5.0 miCalmRain-ThunderstormLight Thunderstorms and Rain
6:20 PM46.4 °F46.4 °F100 %29.74 in5.0 miSSW (200°)13.8 mphRain-ThunderstormLight Thunderstorms and Rain
6:50 PM46.4 °F46.4 °F100 %29.77 in3.7 miSSW (210°)17.3 mph28.8 mphRain-ThunderstormThunderstorms and Rain
7:20 PM46.4 °F46.4 °F100 %29.77 in3.7 miSSW (200°)15.0 mphRain-ThunderstormThunderstorms and Rain
7:50 PM46.4 °F46.4 °F100 %29.77 in5.0 miSouth (170°)10.4 mphRain-ThunderstormLight Thunderstorms and Rain
8:00 PM47.0 °F46.0 °F92 %29.78 in5.0 miSouth (170°)10.4 mphRain-ThunderstormThunderstorms and Rain
8:20 PM46.4 °F46.4 °F100 %29.77 in5.0 miWest (260°)4.6 mphRain-ThunderstormLight Thunderstorms and Rain
8:50 PM46.4 °F44.6 °F93 %29.77 in5.0 miSE (140°)3.5 mphRain-ThunderstormLight Thunderstorms and Rain
9:20 PM46.4 °F44.6 °F93 %29.77 in6.2 miWest (270°)5.8 mphThunderstormThunderstorm
9:50 PM46.4 °F44.6 °F93 %29.77 in6.2 miCalmScattered Clouds
10:20 PM46.4 °F44.6 °F93 %29.77 in6.2 miCalmScattered Clouds
10:50 PM46.4 °F42.8 °F87 %29.80 in6.2 miNW (320°)6.9 mphRainLight Rain
11:20 PM46.4 °F42.8 °F87 %29.80 in6.2 miNorth (350°)4.6 mphScattered Clouds
11:50 PM46.4 °F42.8 °F87 %29.80 in6.2 miNW (310°)6.9 mphScattered Clouds
Hourly data recorded from LGIO, located miles away from Ioannina, Greece







STORIES FROM OUR PARTNERS